Terug naar catalogus

FLOCK 4BE 14

ActiefWetenschapSSO
NORAD 60517·PAYLOAD·🇺🇸 United States

Gelanceerd Aug 16, 2024 vanaf Vandenberg Space Force Base

Loading…

Volgende Passages (komende 24 uur)

TLE

VersSource: CelesTrak SupGP

Epoch: Sep 14, 2026, 06:45 UTC

1 60517C 24149AG  26257.28133102  .00043367  00000+0  95365-3 0  2571
2 60517  97.3650 341.9709 0003244 343.9744 216.4112 15.43984933    18

Volg FLOCK 4BE 14 in realtime met AllMySat

Download on the App Store